Volver al catálogo

STARLINK-34495

ActivoComunicacionesVLEO
NORAD 64428·PAYLOAD·🇺🇸 United States

Lanzado Jun 17, 2025 desde Vandenberg Space Force Base

Loading…

Próximos Pases (próximas 24 horas)

TLE

ActualizadoSource: CelesTrak SupGP

Época: Sep 14, 2026, 20:48 UTC

1 64428C 25129S   26257.86715278 -.00022022  00000+0 -76647-3 0  2578
2 64428  69.9993 315.7516 0003335 270.6179 228.8741 15.29572531    18

Sigue STARLINK-34495 en tiempo real con AllMySat

Download on the App Store